When you browse on this site, cookies collect data to enhance your experience and personalize the content and advertising you see.
Visit our Privacy Policy to learn more. By continuing to use the site, you agree to this use of cookies and data.
  • In Schweiz
  • Länderverzeichnis
  • Für 7 Tage
  • Wassertemperatur
  • Wetterkarte
  • Widgets
  • user-avatar
    Anmelden

    Stündliche Wetter Morpeth

    Heute, 18 September, Mittwoch

    Zeit Temperatur Niederschläge Wind Luftdruck Luftfeuchtigkeit
    00:00 +8°C° 0 mm 1 m/S 765 mmHg 82%
    01:00 +8°C° 0 mm 1 m/S 765 mmHg 83%
    02:00 +8°C° 0 mm 1 m/S 765 mmHg 84%
    03:00 +8°C° 0 mm 1 m/S 765 mmHg 86%
    04:00 +9°C° 0 mm 1 m/S 765 mmHg 84%
    05:00 +9°C° 0 mm 1 m/S 766 mmHg 83%
    06:00 +9°C° 0 mm 1 m/S 766 mmHg 81%
    07:00 +10°C° 0 mm 2 m/S 766 mmHg 77%
    08:00 +12°C° 0 mm 2 m/S 766 mmHg 72%
    09:00 +13°C° 0 mm 2 m/S 766 mmHg 68%
    10:00 +14°C° 0 mm 2 m/S 766 mmHg 67%
    11:00 +15°C° 0 mm 2 m/S 766 mmHg 66%
    12:00 +16°C° 0 mm 2 m/S 766 mmHg 66%
    13:00 +17°C° 0 mm 2 m/S 766 mmHg 68%
    14:00 +17°C° 0 mm 3 m/S 766 mmHg 70%
    15:00 +17°C° 0 mm 3 m/S 766 mmHg 72%
    16:00 +16°C° 0 mm 3 m/S 766 mmHg 77%
    17:00 +14°C° 0 mm 3 m/S 766 mmHg 82%
    18:00 +13°C° 0 mm 3 m/S 765 mmHg 87%
    19:00 +13°C° 0 mm 3 m/S 766 mmHg 88%
    20:00 +12°C° 0 mm 3 m/S 766 mmHg 90%
    21:00 +11°C° 0 mm 3 m/S 767 mmHg 92%
    22:00 +11°C° 0 mm 3 m/S 767 mmHg 92%
    23:00 +11°C° 0 mm 3 m/S 766 mmHg 92%

    Morgen, 19 September, Donnerstag

    Zeit Temperatur Niederschläge Wind Luftdruck Luftfeuchtigkeit
    00:00 +12°C° 0 mm 2 m/S 766 mmHg 92%
    01:00 +12°C° 0 mm 2 m/S 766 mmHg 92%
    02:00 +12°C° 0 mm 2 m/S 766 mmHg 92%
    03:00 +10°C° 0 mm 2 m/S 766 mmHg 92%
    04:00 +10°C° 0 mm 2 m/S 766 mmHg 92%
    05:00 +10°C° 0 mm 2 m/S 766 mmHg 92%
    06:00 +10°C° 0 mm 2 m/S 766 mmHg 92%
    07:00 +13°C° 0 mm 1 m/S 767 mmHg 88%
    08:00 +14°C° 0 mm 1 m/S 767 mmHg 84%
    09:00 +16°C° 0 mm 1 m/S 767 mmHg 80%
    10:00 +18°C° 0 mm 1 m/S 767 mmHg 76%
    11:00 +19°C° 0 mm 1 m/S 767 mmHg 72%
    12:00 +19°C° 0 mm 2 m/S 767 mmHg 68%
    13:00 +19°C° 0 mm 2 m/S 767 mmHg 69%
    14:00 +19°C° 0 mm 2 m/S 766 mmHg 71%
    15:00 +19°C° 0 mm 2 m/S 766 mmHg 72%
    16:00 +18°C° 0 mm 2 m/S 766 mmHg 77%
    17:00 +17°C° 0 mm 2 m/S 766 mmHg 81%
    18:00 +16°C° 0 mm 2 m/S 766 mmHg 86%
    19:00 +15°C° 0 mm 2 m/S 766 mmHg 87%
    20:00 +14°C° 0 mm 2 m/S 766 mmHg 88%
    21:00 +13°C° 0 mm 2 m/S 766 mmHg 89%
    22:00 +13°C° 0 mm 2 m/S 766 mmHg 89%
    23:00 +13°C° 0 mm 1 m/S 766 mmHg 89%

    übermorgen, 20 September, Freitag

    Zeit Temperatur Niederschläge Wind Luftdruck Luftfeuchtigkeit
    00:00 +12°C° 0 mm 1 m/S 766 mmHg 89%
    01:00 +12°C° 0 mm 1 m/S 765 mmHg 90%
    02:00 +12°C° 0 mm 1 m/S 765 mmHg 90%
    03:00 +12°C° 0 mm 1 m/S 765 mmHg 91%
    04:00 +12°C° 0 mm 1 m/S 764 mmHg 91%
    05:00 +12°C° 0 mm 1 m/S 764 mmHg 91%
    06:00 +12°C° 0 mm 1 m/S 764 mmHg 92%
    07:00 +13°C° 0 mm 1 m/S 764 mmHg 86%
    08:00 +15°C° 0 mm 2 m/S 764 mmHg 81%
    09:00 +17°C° 0 mm 2 m/S 764 mmHg 76%
    10:00 +18°C° 0 mm 2 m/S 763 mmHg 73%
    11:00 +19°C° 0 mm 3 m/S 763 mmHg 70%
    12:00 +20°C° 0 mm 4 m/S 763 mmHg 68%
    13:00 +20°C° 0 mm 4 m/S 762 mmHg 68%
    14:00 +20°C° 0 mm 5 m/S 762 mmHg 68%
    15:00 +20°C° 0 mm 5 m/S 761 mmHg 68%
    16:00 +19°C° 0 mm 5 m/S 761 mmHg 73%
    17:00 +16°C° 0 mm 5 m/S 760 mmHg 78%
    18:00 +15°C° 0 mm 5 m/S 760 mmHg 83%
    19:00 +14°C° 0 mm 5 m/S 760 mmHg 85%
    20:00 +13°C° 0 mm 5 m/S 759 mmHg 88%
    21:00 +13°C° 0 mm 5 m/S 759 mmHg 90%
    22:00 +12°C° 0 mm 5 m/S 759 mmHg 90%
    23:00 +12°C° 0 mm 5 m/S 759 mmHg 90%

    21 September, Samstag

    Zeit Temperatur Niederschläge Wind Luftdruck Luftfeuchtigkeit
    00:00 +10°C° 0 mm 5 m/S 758 mmHg 89%
    01:00 +10°C° 0 mm 5 m/S 758 mmHg 91%
    02:00 +10°C° 0 mm 5 m/S 757 mmHg 92%
    03:00 +10°C° 0 mm 5 m/S 757 mmHg 94%
    04:00 +10°C° 0 mm 5 m/S 756 mmHg 94%
    05:00 +10°C° 0 mm 5 m/S 756 mmHg 93%
    06:00 +10°C° 0 mm 5 m/S 755 mmHg 93%
    07:00 +11°C° 0 mm 6 m/S 755 mmHg 87%
    08:00 +12°C° 0 mm 7 m/S 755 mmHg 81%
    09:00 +15°C° 0 mm 7 m/S 754 mmHg 75%
    10:00 +16°C° 0 mm 7 m/S 754 mmHg 71%
    11:00 +17°C° 0 mm 8 m/S 754 mmHg 68%
    12:00 +18°C° 0 mm 8 m/S 753 mmHg 64%
    13:00 +18°C° 0 mm 8 m/S 753 mmHg 64%
    14:00 +18°C° 0 mm 7 m/S 752 mmHg 64%
    15:00 +18°C° 0 mm 7 m/S 752 mmHg 65%
    16:00 +16°C° 0 mm 7 m/S 751 mmHg 70%
    17:00 +15°C° 0 mm 6 m/S 751 mmHg 75%
    18:00 +14°C° 0 mm 6 m/S 751 mmHg 80%
    19:00 +13°C° 0 mm 5 m/S 750 mmHg 82%
    20:00 +13°C° 0 mm 5 m/S 750 mmHg 85%
    21:00 +12°C° 0 mm 4 m/S 750 mmHg 87%
    22:00 +12°C° 0 mm 4 m/S 750 mmHg 88%
    23:00 +12°C° 0 mm 3 m/S 749 mmHg 89%

    22 September, Sonntag

    Zeit Temperatur Niederschläge Wind Luftdruck Luftfeuchtigkeit
    00:00 +11°C° 0 mm 3 m/S 749 mmHg 91%
    01:00 +11°C° 0 mm 3 m/S 748 mmHg 91%
    02:00 +11°C° 0 mm 3 m/S 748 mmHg 91%
    03:00 +12°C° 0 mm 2 m/S 747 mmHg 91%
    04:00 +13°C° 0.2 mm 2 m/S 747 mmHg 91%
    05:00 +13°C° 0.2 mm 2 m/S 746 mmHg 92%
    06:00 +14°C° 0.2 mm 2 m/S 746 mmHg 93%
    07:00 +14°C° 0.5 mm 2 m/S 746 mmHg 94%
    08:00 +14°C° 0.5 mm 2 m/S 746 mmHg 94%
    09:00 +15°C° 0.5 mm 2 m/S 746 mmHg 95%
    10:00 +16°C° 0.3 mm 2 m/S 745 mmHg 93%
    11:00 +17°C° 0.3 mm 3 m/S 745 mmHg 92%
    12:00 +18°C° 0.3 mm 3 m/S 745 mmHg 90%
    13:00 +18°C° 0.2 mm 3 m/S 745 mmHg 88%
    14:00 +18°C° 0.2 mm 3 m/S 745 mmHg 87%
    15:00 +18°C° 0.2 mm 3 m/S 745 mmHg 85%
    16:00 +17°C° 0.3 mm 3 m/S 745 mmHg 86%
    17:00 +17°C° 0.3 mm 3 m/S 745 mmHg 86%
    18:00 +16°C° 0.3 mm 2 m/S 746 mmHg 87%
    19:00 +15°C° 0 mm 2 m/S 746 mmHg 88%
    20:00 +14°C° 0 mm 2 m/S 747 mmHg 89%
    21:00 +13°C° 0 mm 2 m/S 747 mmHg 90%
    22:00 +13°C° 0 mm 2 m/S 747 mmHg 90%
    23:00 +12°C° 0 mm 2 m/S 748 mmHg 90%

    23 September, Montag

    Zeit Temperatur Niederschläge Wind Luftdruck Luftfeuchtigkeit
    00:00 +12°C° 0 mm 2 m/S 748 mmHg 90%
    01:00 +12°C° 0 mm 2 m/S 748 mmHg 90%
    02:00 +10°C° 0 mm 2 m/S 748 mmHg 90%
    03:00 +10°C° 0 mm 2 m/S 749 mmHg 91%
    04:00 +10°C° 0 mm 2 m/S 749 mmHg 91%
    05:00 +10°C° 0 mm 2 m/S 749 mmHg 92%
    06:00 +10°C° 0 mm 2 m/S 749 mmHg 92%
    07:00 +12°C° 0 mm 2 m/S 750 mmHg 89%
    08:00 +14°C° 0 mm 2 m/S 750 mmHg 85%
    09:00 +14°C° 0 mm 3 m/S 750 mmHg 81%
    10:00 +16°C° 0.1 mm 3 m/S 750 mmHg 77%
    11:00 +17°C° 0.1 mm 3 m/S 751 mmHg 74%
    12:00 +18°C° 0.1 mm 4 m/S 751 mmHg 70%
    13:00 +17°C° 0.1 mm 4 m/S 751 mmHg 71%
    14:00 +17°C° 0.1 mm 3 m/S 751 mmHg 72%
    15:00 +17°C° 0.1 mm 3 m/S 751 mmHg 72%
    16:00 +16°C° 0 mm 3 m/S 751 mmHg 76%
    17:00 +14°C° 0 mm 3 m/S 751 mmHg 79%
    18:00 +13°C° 0 mm 2 m/S 751 mmHg 82%
    19:00 +13°C° 0 mm 2 m/S 751 mmHg 82%
    20:00 +13°C° 0 mm 2 m/S 751 mmHg 82%
    21:00 +12°C° 0 mm 2 m/S 752 mmHg 81%
    22:00 +12°C° 0 mm 2 m/S 751 mmHg 82%
    23:00 +11°C° 0 mm 3 m/S 751 mmHg 83%
    Mehr zeigen